Theta_e
347 347 347 347 347 348 349 349 346 348 349 349 351 353 353 352 351 351 351 350 349 349 349 349 349 350 350 350 352 349 346 348 349 349 347 346 345 345 345 344 345 345 345 346 348 348 347 346 346 346 346 346 345 345 345 344 343 342 343 343 343 343 345 347 346 344 341 342 346 348 348 348 348 347 348 351 351 349 347 346 345 345 347 348 349
345 346 346 347 347 347 348 348 347 347 349 349 350 352 353 353 352 351 350 351 349 347 348 350 350 351 350 350 349 346 344 347 348 348 346 344 344 345 345 345 345 345 345 345 346 346 346 346 346 346 346 345 345 345 345 345 344 343 343 343 343 342 344 346 348 349 347 342 344 346 347 348 349 348 349 351 352 352 353 352 350 346 345 346 347
342 344 346 347 347 348 347 347 346 346 348 350 351 352 353 353 352 352 351 352 351 347 349 352 352 351 349 348 346 343 342 344 345 345 344 344 346 347 347 348 347 347 346 346 346 346 346 346 346 346 346 345 345 345 345 345 343 343 343 343 343 343 343 344 345 346 346 344 346 347 348 349 349 348 350 351 351 352 352 353 352 348 346 347 347
343 344 346 347 347 348 348 348 348 347 347 349 350 351 352 354 354 352 353 354 351 349 349 351 350 348 346 344 342 342 342 343 343 344 344 345 346 348 348 349 349 348 348 347 348 348 347 347 346 346 346 346 345 345 344 344 344 344 343 343 344 344 342 343 343 344 344 344 346 347 348 348 348 348 349 350 351 350 350 351 351 349 347 348 350
345 345 346 346 347 348 348 348 349 347 348 349 350 349 351 353 354 353 353 352 351 349 349 349 348 347 346 345 345 344 344 344 344 344 344 344 345 346 348 349 350 350 349 349 349 349 347 346 345 345 345 345 344 343 343 344 345 345 344 344 344 344 343 343 343 343 344 344 344 346 348 348 347 346 347 350 351 351 350 350 349 348 347 348 350
346 347 348 348 349 350 349 349 350 349 349 350 350 350 350 352 352 352 351 350 349 349 348 347 347 347 347 347 347 347 347 347 347 348 348 348 347 346 347 349 350 350 350 350 349 348 347 346 344 344 344 344 344 343 343 344 346 346 346 346 344 344 344 344 344 344 344 344 343 344 346 347 347 346 347 349 350 350 351 349 347 347 347 346 346
347 348 350 349 348 349 348 348 350 350 349 350 350 349 350 351 350 350 349 349 350 350 350 349 348 348 349 349 349 349 349 350 349 349 350 351 350 349 348 349 349 349 349 348 347 347 345 343 342 342 341 341 342 344 345 346 347 347 347 347 345 345 345 345 345 344 344 345 345 345 347 348 349 348 347 347 346 346 347 347 345 345 346 345 345
348 348 350 349 346 347 348 348 348 348 349 350 350 351 350 349 351 351 351 352 353 353 352 351 351 350 350 350 350 350 349 350 351 351 351 352 351 350 350 350 349 348 347 346 345 344 343 342 342 341 342 342 344 346 347 347 347 347 346 346 346 346 347 346 345 344 344 346 347 346 347 349 349 348 347 345 345 346 346 345 345 345 345 346 346
349 347 348 348 348 347 347 347 348 348 348 349 350 351 350 351 352 352 353 354 353 353 352 352 352 352 351 351 351 350 349 350 351 351 352 352 351 350 350 350 349 347 346 345 344 343 343 343 343 343 344 345 345 346 346 346 347 346 344 344 345 347 347 346 346 345 346 347 347 347 347 349 348 346 347 347 345 346 347 346 346 346 346 345 345
348 347 348 348 347 347 347 348 348 347 348 349 349 350 352 353 354 354 354 354 353 353 354 353 354 353 352 351 350 349 349 350 351 351 350 350 350 350 348 347 345 345 345 345 344 344 344 344 344 345 344 345 345 345 345 346 346 346 345 345 346 347 346 346 346 347 348 348 347 346 346 347 347 345 346 346 345 346 346 345 346 346 345 345 345
347 348 348 348 348 347 347 348 347 347 348 351 351 351 353 355 354 354 354 354 354 354 353 353 353 352 350 350 349 349 350 350 350 350 349 349 348 347 346 345 345 344 345 345 346 347 347 346 346 346 346 346 346 346 346 347 346 347 347 347 347 347 347 347 347 347 347 347 346 347 346 346 346 345 346 347 345 345 344 344 345 345 345 345 344
346 348 347 347 347 347 348 348 348 347 347 349 350 351 353 355 354 353 353 354 354 354 352 351 350 348 348 348 349 350 350 350 349 348 346 345 344 344 345 346 346 346 347 348 349 349 348 347 347 348 347 347 347 346 347 347 347 347 347 346 346 346 347 347 346 346 347 346 346 346 345 345 346 345 345 345 344 343 344 345 345 344 344 344 344
347 347 347 346 346 346 348 348 349 348 347 348 350 351 352 353 352 352 353 354 353 352 350 349 347 347 348 349 349 349 349 348 346 345 345 344 343 344 346 347 347 348 348 348 347 347 348 347 347 347 347 346 346 346 346 346 346 346 346 346 346 346 346 346 346 346 346 345 345 345 344 345 346 345 345 345 344 343 343 343 342 341 341 341 340
347 346 346 346 346 346 347 349 349 349 349 349 349 348 350 351 352 352 353 352 351 350 349 348 348 348 348 348 348 346 345 345 345 344 345 344 344 345 348 348 347 347 347 346 345 345 345 343 342 344 345 344 344 344 344 344 345 345 345 345 346 347 346 345 346 346 345 345 345 344 343 343 343 343 342 341 338 336 335 334 335 336 337 337 336
348 347 346 346 347 348 349 349 349 349 349 349 348 349 351 353 353 353 352 351 350 349 347 347 348 348 346 345 345 345 344 344 344 344 344 344 344 346 347 346 344 343 341 338 336 337 336 336 337 338 340 342 341 339 340 341 343 344 344 344 346 347 346 345 345 345 344 343 342 341 341 339 336 335 334 331 329 328 329 331 333 334 336 336 336
347 348 347 348 348 349 351 351 351 352 352 351 350 351 353 354 353 352 350 349 349 348 347 346 346 344 343 343 345 345 344 343 344 344 344 343 344 344 342 340 338 338 335 332 331 332 332 334 334 333 335 337 334 332 334 336 339 343 344 343 345 346 344 342 341 339 337 336 335 334 334 332 329 328 327 326 327 328 331 335 336 336 337 338 338
349 350 349 349 349 350 352 353 353 354 354 353 353 353 354 353 351 349 347 347 348 347 345 344 344 343 344 345 347 346 344 344 344 344 341 339 340 340 338 337 338 339 338 336 336 336 334 332 332 333 334 335 332 330 331 331 334 339 341 341 342 342 340 339 338 336 331 329 328 327 327 326 326 327 327 328 329 329 332 336 337 336 337 338 338
352 352 350 349 350 351 351 352 353 354 354 354 353 352 352 350 348 347 347 347 347 346 345 345 345 346 347 348 347 346 345 343 341 339 338 337 338 338 338 340 341 341 341 339 338 339 337 332 331 332 333 333 333 333 333 332 332 335 337 337 338 338 338 337 336 335 331 328 328 326 326 327 327 328 329 330 330 330 333 335 335 335 336 336 336
353 353 352 351 351 351 351 353 354 355 354 354 353 351 351 349 347 346 346 346 346 345 345 346 347 348 348 348 346 344 342 340 339 339 339 338 338 339 340 341 341 340 340 340 339 339 338 335 333 331 331 331 331 332 333 333 333 334 336 338 338 338 337 335 334 331 329 331 332 331 332 333 332 333 333 332 331 331 333 334 334 334 334 335 335
354 353 353 353 352 353 353 355 355 354 353 353 352 351 349 347 345 345 346 347 346 346 347 348 348 348 347 345 343 341 340 340 340 341 340 338 338 340 340 340 340 339 339 339 338 338 338 337 335 331 330 330 330 330 330 331 332 333 334 336 336 335 334 333 331 328 326 330 333 334 334 335 335 335 335 334 333 333 333 333 333 332 333 333 333
354 354 354 354 353 354 353 354 354 353 353 352 350 348 346 346 346 347 348 348 347 347 348 348 347 345 344 343 342 340 340 341 341 340 340 338 338 340 340 338 337 338 339 338 337 338 337 337 335 332 331 331 331 330 330 329 330 330 331 332 332 331 331 330 329 328 329 332 334 335 335 336 336 335 335 334 333 334 333 333 333 333 333 332 332
354 354 355 355 354 354 352 352 353 352 351 349 347 346 347 348 347 347 347 347 347 347 347 346 344 342 343 344 343 341 341 341 341 340 341 341 340 340 338 335 333 336 338 338 337 337 337 335 333 332 332 333 333 333 333 332 331 331 331 331 331 330 331 331 329 331 333 335 336 336 336 335 335 335 334 334 334 334 334 334 334 333 332 332 331
354 355 355 355 353 353 352 351 350 349 348 347 348 349 349 348 347 347 347 346 345 345 344 343 342 342 344 344 342 341 342 342 342 342 342 342 342 339 335 333 332 334 336 337 337 337 336 334 332 332 332 333 334 334 334 334 333 333 332 332 332 331 331 331 331 333 335 336 337 337 337 336 336 335 335 334 334 334 334 334 334 334 333 332 331
354 354 353 353 351 349 348 347 346 346 347 348 349 349 348 347 347 346 344 342 341 341 342 343 344 344 345 344 342 343 343 343 343 343 343 343 342 338 334 333 333 332 334 335 335 334 334 333 333 333 333 333 333 334 334 334 334 334 334 334 334 333 333 333 334 335 335 336 336 336 336 336 336 336 336 334 332 332 332 333 333 333 332 332 331
354 352 351 349 347 346 346 346 346 348 348 348 349 348 347 346 345 342 341 342 343 343 344 345 346 346 345 344 344 343 343 343 343 344 343 343 341 337 334 334 333 333 332 333 333 333 334 334 333 333 333 333 334 333 334 334 333 333 334 334 335 335 335 335 335 335 335 335 335 335 335 335 336 336 335 334 332 332 334 334 333 332 332 331 331
351 350 348 347 346 346 347 348 349 349 348 347 347 345 344 343 341 341 344 346 346 346 347 347 347 348 346 344 344 343 343 343 343 344 342 341 338 335 334 334 333 332 332 332 333 334 334 334 333 333 333 333 333 333 333 333 333 333 333 333 333 333 333 334 335 334 334 334 334 334 334 334 334 334 334 333 332 333 334 334 333 332 332 332 332
347 348 348 348 348 349 349 350 349 348 348 347 347 346 345 345 344 345 347 347 347 347 347 347 347 347 346 343 342 343 342 343 343 341 339 337 337 337 336 335 334 334 334 334 334 335 335 334 334 333 333 333 333 333 333 332 332 332 332 332 332 332 331 332 332 332 332 332 333 333 333 333 333 333 333 332 332 333 333 332 332 332 332 332 332
346 347 348 349 349 350 349 349 348 348 347 346 346 346 346 346 346 346 346 347 347 347 347 346 346 346 346 343 341 340 340 340 339 337 336 335 336 337 336 335 334 335 334 334 335 336 335 335 335 335 334 334 334 333 332 331 331 331 331 331 331 331 331 330 330 330 330 331 331 332 332 331 332 332 331 331 331 331 331 330 330 330 331 332 331
348 350 350 350 349 349 349 348 346 345 344 343 343 343 343 343 343 343 342 343 343 343 344 343 343 343 342 341 340 339 338 337 337 336 336 336 335 335 335 334 333 333 332 332 333 335 335 334 334 334 333 332 331 331 330 330 329 329 330 330 329 329 328 328 328 328 328 328 328 328 328 328 328 328 329 329 329 328 327 328 328 328 328 328 328
350 352 352 351 349 348 347 344 340 339 340 340 341 342 342 342 342 342 341 340 340 340 341 340 339 339 338 338 339 339 337 337 337 336 336 335 334 333 332 330 330 330 330 330 331 333 332 332 331 331 330 330 330 329 329 328 328 327 327 327 326 326 326 325 325 325 325 325 325 325 325 326 325 325 325 325 325 325 325 326 326 326 326 326 326
351 352 352 349 346 346 344 341 338 339 341 341 342 342 342 343 343 342 341 341 341 340 340 340 340 339 339 338 339 338 337 337 336 334 333 332 331 330 329 327 326 326 327 328 331 331 331 330 329 328 327 327 327 327 326 325 325 325 323 323 323 323 323 322 322 321 321 322 322 323 323 323 323 323 323 322 322 323 324 325 325 324 324 325 325
350 352 351 346 343 343 343 341 341 342 343 342 343 343 343 343 342 341 341 341 341 341 341 341 339 338 337 337 336 336 335 334 333 332 331 329 329 328 327 326 326 325 326 328 330 329 329 328 327 325 324 324 324 324 324 323 322 322 321 321 321 321 320 318 317 317 318 319 319 320 320 320 319 320 320 319 320 321 322 322 323 322 322 322 322
349 351 348 343 342 344 344 342 342 344 343 343 343 344 344 343 342 341 341 341 341 341 340 340 339 338 336 335 334 334 333 332 331 330 328 327 328 328 327 326 325 323 323 326 328 327 326 325 323 322 322 322 322 321 321 321 320 320 319 318 316 315 313 311 312 314 317 317 317 317 317 317 316 317 317 317 317 318 319 320 320 320 320 320 320
347 347 345 343 343 345 344 343 344 345 344 343 344 343 343 342 342 341 341 341 340 340 339 337 337 335 334 333 333 331 330 329 329 328 327 327 327 325 323 322 321 318 318 322 324 324 322 320 319 318 318 318 318 318 318 318 317 316 314 313 312 311 309 308 308 309 310 311 312 312 311 312 313 313 314 315 315 316 317 317 317 318 317 317 318
342 342 343 344 344 345 346 346 346 346 344 344 344 343 342 342 341 341 341 341 340 338 336 335 334 332 331 330 330 329 328 328 328 327 325 323 321 318 318 320 319 318 317 319 320 319 318 317 316 315 315 315 315 314 313 313 312 311 311 311 311 310 309 308 307 305 305 307 308 306 305 307 309 310 310 311 312 313 314 315 315 315 315 315 315
344 343 343 344 344 344 346 346 345 344 344 344 344 343 342 341 340 340 340 339 337 336 335 333 331 330 329 329 328 327 327 325 322 319 315 311 310 313 317 319 318 317 317 317 316 315 314 314 314 313 313 313 312 312 312 311 311 311 310 310 310 309 308 308 306 304 304 307 308 305 305 307 308 308 308 310 311 312 313 313 313 313 314 313 313
345 344 344 344 343 343 344 344 344 344 344 343 343 343 341 341 340 340 338 337 335 334 332 330 329 328 328 327 326 324 321 317 313 309 308 308 309 312 315 315 315 315 315 315 314 314 313 313 313 312 312 312 312 312 311 311 311 310 310 310 310 309 308 307 306 304 305 307 307 306 306 307 308 308 308 310 310 311 311 311 311 312 312 312 311
345 344 344 343 343 343 343 344 344 343 343 342 342 341 340 340 340 338 337 335 333 331 330 329 327 326 325 325 323 321 318 316 315 313 313 314 315 315 315 315 314 315 314 313 313 313 313 313 312 312 312 312 311 311 311 311 310 310 309 309 309 309 308 308 306 305 305 306 307 306 307 307 307 307 308 309 309 309 309 309 309 310 310 310 310
343 343 343 342 342 343 343 343 343 342 342 341 340 339 339 339 338 336 334 332 331 329 328 327 326 325 325 323 322 321 319 318 318 318 317 317 317 317 316 316 316 315 315 314 314 313 313 313 312 312 312 311 311 311 310 310 310 310 309 309 308 308 308 307 307 306 306 306 306 306 306 306 306 307 307 307 307 308 308 308 308 308 308 308 309
341 341 340 340 340 342 342 341 341 340 340 339 338 338 337 336 334 333 332 331 329 328 327 326 325 324 322 319 318 319 320 319 318 318 318 317 317 316 316 316 316 315 315 314 313 313 313 313 312 312 311 311 311 310 310 310 309 309 309 309 308 308 307 307 306 306 306 306 306 306 306 306 306 306 306 306 306 306 306 307 307 307 307 307 307
341 340 338 338 339 339 339 338 338 339 338 338 337 335 334 333 332 331 330 329 328 326 325 324 322 319 314 310 312 316 318 318 318 317 317 317 316 316 316 316 315 315 314 314 313 313 313 312 312 312 311 311 310 310 310 309 309 309 309 308 308 307 307 306 306 306 306 306 306 306 305 305 305 305 306 306 306 306 306 306 306 306 306 306 306
340 338 337 337 337 337 337 337 337 337 336 335 334 333 331 331 330 329 327 326 325 324 323 322 319 313 306 305 310 315 317 318 317 316 316 316 316 315 315 314 314 314 313 314 314 313 313 313 312 312 311 311 310 310 310 309 309 308 308 308 307 307 306 306 306 305 305 305 305 305 305 305 305 305 305 305 305 306 306 306 306 306 306 306 306
337 336 336 335 335 336 336 336 335 334 333 332 331 330 329 328 327 326 324 323 322 321 320 320 318 314 308 307 312 316 318 317 317 316 316 315 314 314 314 313 313 313 313 313 313 312 312 312 312 311 311 310 310 309 309 308 308 308 308 308 307 307 306 306 305 305 305 305 305 305 305 305 305 305 305 305 305 305 305 305 305 305 305 305 305
335 335 335 335 335 335 335 334 333 332 331 330 329 327 326 325 324 323 322 320 320 319 318 318 318 317 315 314 315 317 317 317 316 315 315 314 314 313 313 313 312 312 313 313 312 312 312 312 311 311 310 310 310 309 309 308 308 308 307 307 307 307 306 306 305 305 305 305 305 305 305 305 305 305 305 305 305 305 305 305 305 305 305 305 305
335 335 334 334 334 334 333 331 330 329 327 326 325 324 323 322 321 320 320 319 318 318 318 317 317 317 317 316 316 316 316 315 315 314 314 314 313 313 313 312 312 312 312 312 312 311 311 311 311 310 310 310 309 309 309 308 308 307 307 307 307 306 306 306 305 305 305 305 305 305 305 304 305 305 304 304 304 304 304 304 304 304 304 304 304
334 333 332 331 330 329 328 327 326 325 324 323 323 322 321 321 320 320 319 319 318 317 317 316 316 315 315 315 315 314 314 314 314 313 313 313 313 312 312 311 311 311 312 311 311 311 310 310 310 310 310 309 309 309 308 308 307 307 307 306 306 306 306 305 305 305 305 305 305 304 304 304 304 304 304 304 304 304 304 304 304 304 304 304 304
330 328 327 326 325 325 324 324 323 323 323 322 322 321 320 320 319 318 316 316 316 316 316 315 315 315 314 314 314 314 313 313 313 313 312 312 312 312 311 311 311 311 311 310 310 310 310 310 310 309 309 309 309 308 308 308 307 307 307 307 306 306 306 305 305 305 305 304 304 304 304 304 304 304 304 304 304 304 304 304 304 304 303 303 303
325 324 323 323 322 322 322 322 321 321 321 320 319 319 318 318 318 317 315 314 315 315 315 315 315 314 314 313 313 313 312 312 312 311 311 311 311 311 311 311 310 311 310 310 310 310 310 309 309 309 309 309 309 308 308 308 308 307 307 307 307 306 306 305 305 304 304 304 304 304 303 303 303 303 304 303 303 304 304 303 303 303 303 303 303
322 322 323 323 322 321 321 320 320 319 319 317 317 316 316 315 315 315 314 314 314 314 314 314 314 313 313 312 312 312 311 311 311 311 311 311 311 311 311 311 310 310 310 310 310 310 310 309 309 309 309 309 309 309 308 308 308 308 307 307 307 306 306 305 305 305 304 304 303 303 303 303 303 303 303 303 303 303 303 303 303 303 303 303 303
323 322 322 321 321 320 319 319 318 317 317 316 315 314 314 314 314 314 314 314 313 313 313 313 313 312 312 311 311 311 311 312 312 312 312 311 311 311 311 311 311 310 310 310 310 310 310 310 309 309 309 309 309 309 309 308 308 308 308 307 307 306 306 306 306 305 305 304 304 304 304 303 303 303 303 303 303 303 303 303 303 303 302 302 303
322 320 320 319 318 317 317 316 316 315 315 314 314 314 314 314 314 313 313 313 313 313 312 312 312 312 312 312 312 312 312 312 312 312 311 311 311 311 311 311 311 310 310 310 310 310 310 309 309 309 309 309 309 309 308 308 308 308 307 307 307 306 306 306 306 305 305 304 304 303 304 304 304 303 303 303 303 303 303 303 303 303 302 302 302
Wind_Speed
16 15 15 16 17 16 15 15 14 15 15 15 13 12 12 12 12 12 13 13 13 13 14 15 15 15 14 13 15 18 18 16 18 18 18 18 18 19 20 20 21 21 21 22 21 22 24 24 24 25 25 26 26 27 27 28 28 27 26 26 25 24 24 25 28 31 34 31 27 25 23 22 22 21 20 21 22 23 23 22 22 22 22 22 22
15 14 13 13 14 15 15 14 13 12 13 14 14 13 12 12 13 13 13 13 13 14 15 15 14 14 14 15 18 19 18 18 19 19 18 18 17 17 19 20 21 21 22 22 22 23 24 25 25 25 26 27 28 28 28 29 29 29 28 28 28 26 24 25 27 30 33 33 30 28 25 22 22 21 20 20 20 19 19 20 22 24 24 22 22
15 14 11 10 11 13 14 13 12 11 11 12 13 13 13 14 15 15 13 12 14 15 15 14 14 14 15 16 18 18 18 19 19 19 18 17 16 17 17 18 19 20 20 20 20 21 21 22 22 23 23 24 25 26 27 29 29 29 29 29 29 28 26 26 28 30 32 32 29 26 23 21 21 20 19 19 18 18 19 19 21 24 24 22 22
17 16 13 10 10 10 11 11 11 11 12 13 13 14 14 15 16 16 15 14 15 15 14 14 14 15 15 16 17 18 18 18 18 18 18 17 17 17 17 18 18 18 18 18 18 19 19 20 19 19 19 20 22 23 24 26 26 26 25 26 28 29 28 26 27 28 30 30 29 25 23 24 24 21 19 19 19 19 19 19 20 24 24 21 19
19 18 15 14 12 10 9 9 9 10 11 12 13 14 15 15 15 15 15 15 15 15 14 14 14 14 14 15 15 16 16 17 17 17 17 17 17 17 17 17 17 16 17 17 17 17 17 17 17 17 19 20 22 23 23 23 23 23 23 23 25 27 27 26 25 25 26 29 29 26 25 26 27 24 20 19 19 18 18 20 20 22 23 20 17
24 20 16 14 12 11 10 9 9 9 10 11 13 14 14 14 14 13 12 13 13 12 12 12 13 13 12 13 14 14 15 16 16 17 17 16 16 16 16 16 16 15 15 15 15 15 15 16 17 18 19 21 22 22 21 21 21 22 22 22 22 23 23 23 24 24 24 26 28 27 26 25 25 23 19 17 18 18 19 21 21 20 21 22 20
24 20 14 13 12 10 9 9 9 10 11 12 13 13 12 13 13 13 12 12 11 11 11 11 12 13 13 13 14 15 15 15 15 16 16 15 14 14 14 13 14 14 14 14 14 14 15 17 18 18 18 20 21 20 20 19 19 20 20 19 20 21 21 21 22 23 24 25 27 27 25 22 21 20 19 18 19 20 20 21 21 21 21 22 21
20 16 13 15 16 15 12 11 10 10 11 12 12 12 12 13 13 13 13 13 12 11 11 11 13 13 14 14 14 14 14 14 13 13 13 13 13 13 12 12 11 12 12 12 13 14 15 16 17 18 19 19 19 18 18 18 18 19 18 17 18 19 20 20 20 22 23 24 25 24 21 19 18 17 18 19 19 18 17 18 21 22 22 20 20
15 11 10 13 16 17 15 14 12 11 11 11 11 11 12 13 13 13 13 13 12 11 11 12 13 13 13 13 13 13 13 12 10 11 11 11 10 10 10 10 9 9 10 11 12 13 14 15 16 17 17 17 16 16 17 17 17 18 18 17 17 18 18 18 19 20 21 21 23 22 20 18 17 16 17 19 18 16 16 18 19 20 21 21 20
12 9 7 9 13 16 17 16 14 12 10 10 10 10 11 11 12 11 11 11 10 10 10 10 11 10 10 11 11 11 10 10 9 10 11 10 8 8 8 8 7 8 9 10 10 11 12 13 13 13 14 14 15 15 16 16 16 17 18 18 17 17 18 18 19 19 19 20 21 21 19 17 15 15 17 18 17 17 17 18 18 17 18 20 19
10 9 7 8 11 15 17 17 16 14 11 9 8 9 10 10 11 11 10 9 9 9 9 9 9 9 9 9 9 8 7 8 8 8 9 8 7 6 6 6 7 8 9 8 8 9 10 11 12 12 13 13 14 14 14 15 15 16 16 17 17 17 18 19 20 19 19 20 20 20 19 18 16 16 15 16 18 19 18 17 17 17 17 20 20
9 9 9 9 12 15 16 17 17 15 14 11 9 8 9 10 11 10 9 8 9 9 9 9 9 8 6 5 4 4 5 6 6 5 5 5 5 6 6 6 6 6 7 7 7 8 9 10 11 11 12 12 12 13 13 14 15 15 16 16 17 17 17 18 19 20 19 20 20 19 20 19 17 17 15 17 20 20 17 16 16 17 18 20 20
12 10 10 10 12 14 15 16 17 17 15 12 10 10 11 11 11 10 9 9 9 9 8 7 6 4 3 3 3 3 4 5 4 4 4 4 5 6 5 5 4 5 6 7 7 8 9 10 10 9 10 12 12 12 12 13 14 15 15 15 15 15 15 16 17 18 18 18 18 19 18 17 16 16 15 17 18 17 16 15 14 15 16 16 16
14 13 13 13 13 14 13 15 17 17 15 13 12 12 12 11 10 10 10 10 9 7 7 6 4 4 4 4 4 4 3 3 3 3 3 4 4 3 3 3 4 4 5 6 6 7 8 9 9 8 9 10 11 11 11 12 12 12 13 13 11 12 13 14 14 14 14 15 16 16 17 16 15 15 15 15 16 15 14 13 12 11 11 12 12
14 14 15 15 15 14 14 15 16 16 15 14 13 13 12 11 10 11 11 9 7 7 6 6 5 5 5 4 3 3 2 2 2 3 2 3 2 1 2 2 3 4 4 5 5 6 6 7 7 7 7 9 11 12 11 10 10 10 12 12 10 10 12 13 13 13 14 15 15 14 13 14 15 15 15 14 14 13 11 10 9 9 9 9 10
15 16 15 14 14 14 14 15 14 13 13 13 13 12 11 10 11 11 10 8 8 7 7 6 5 5 4 4 3 3 3 3 2 2 2 1 1 1 2 2 2 2 3 3 4 4 4 5 7 7 7 8 10 11 11 10 8 9 12 12 10 9 11 13 14 15 14 14 15 14 13 14 15 14 12 11 9 9 7 6 7 9 9 9 9
15 14 14 14 15 16 15 14 13 13 12 12 12 11 11 11 12 11 10 9 8 7 7 6 6 5 4 4 3 2 2 3 3 2 2 1 1 0 0 1 2 2 3 4 4 5 6 7 8 9 8 9 10 10 10 9 7 7 10 11 9 8 10 13 15 16 15 12 12 13 12 12 11 9 7 6 5 7 6 5 6 8 8 9 10
14 13 14 17 17 16 15 15 14 12 11 10 11 11 12 12 12 11 10 10 9 7 7 6 6 6 5 4 3 3 3 4 4 3 3 2 2 2 3 3 2 3 3 4 5 5 7 8 9 10 10 12 12 11 11 10 9 8 9 9 9 8 8 9 11 13 13 12 10 9 8 8 7 5 4 4 5 7 7 6 7 8 8 9 11
13 13 14 16 17 16 15 14 12 11 11 11 12 12 12 11 11 11 10 9 8 7 7 7 7 7 6 5 4 4 5 5 4 3 3 4 4 4 3 3 3 4 4 5 5 5 6 8 9 10 11 12 12 11 11 11 10 10 8 7 8 8 9 10 10 11 10 7 6 6 5 5 5 4 4 5 6 7 7 6 6 7 7 9 10
12 13 14 15 15 14 13 12 11 11 11 12 12 12 11 11 11 10 8 7 7 7 8 8 8 8 7 5 5 5 6 5 4 4 4 4 4 4 3 3 4 4 4 5 6 6 6 7 9 11 11 11 12 11 11 11 10 11 10 8 8 9 11 12 12 10 7 4 3 3 3 3 4 3 5 7 8 8 8 8 8 7 6 7 8
13 13 13 13 13 13 12 11 11 11 11 12 12 12 11 11 10 9 8 8 8 9 9 8 7 7 7 6 5 5 6 5 4 4 4 3 3 3 3 4 4 4 3 4 5 5 5 5 7 9 10 10 10 10 10 9 9 10 10 10 10 11 12 12 9 6 4 3 3 3 4 5 4 3 4 6 6 6 8 10 10 8 7 8 8
13 12 11 11 12 12 12 12 12 12 12 12 12 12 11 10 10 10 9 9 9 9 9 8 7 8 8 7 6 6 6 5 5 4 3 2 4 5 5 5 6 4 3 3 4 4 5 6 6 7 7 8 9 9 8 8 8 8 8 9 9 10 10 9 6 3 2 4 5 5 5 6 5 6 6 6 6 6 7 9 9 8 8 9 9
12 11 11 10 11 12 12 12 13 13 13 13 12 11 11 11 11 10 10 9 9 9 8 8 7 8 7 6 6 6 5 4 3 2 2 3 5 7 7 7 7 6 4 4 4 4 5 6 6 6 7 7 8 8 8 9 8 7 7 7 8 8 7 5 3 3 3 4 6 7 6 6 6 7 7 6 7 9 9 9 9 9 9 10 10
11 11 10 10 11 12 13 13 13 13 13 12 11 12 12 12 11 10 9 9 8 8 8 8 7 7 6 5 4 4 3 1 0 1 3 4 6 7 8 7 7 7 6 5 4 5 5 6 6 6 7 7 8 8 8 9 9 8 7 7 7 7 6 5 4 5 5 7 9 9 9 7 6 7 10 10 11 12 13 12 11 11 12 12 12
10 11 12 13 13 14 15 14 13 12 12 12 11 11 11 11 10 10 10 9 8 8 7 7 6 5 4 3 2 1 0 1 3 3 3 4 5 6 7 6 6 6 6 5 5 6 6 6 7 7 8 8 9 9 9 9 9 8 8 7 7 7 6 5 6 7 7 8 11 11 11 10 8 9 13 15 15 14 13 13 14 14 14 15 15
12 13 15 16 16 15 15 13 12 12 11 11 11 11 11 11 11 11 10 8 8 8 7 6 5 4 3 2 2 2 2 3 4 4 4 5 5 5 6 6 6 6 6 6 7 7 7 7 7 7 8 9 9 9 9 8 8 8 7 7 7 7 7 7 7 8 8 8 9 10 10 11 11 11 14 16 16 13 11 14 17 17 15 15 16
15 16 16 16 16 15 15 14 13 13 12 12 11 11 10 9 9 10 9 8 7 6 6 5 4 3 2 3 3 4 4 4 4 4 5 4 4 4 5 6 6 5 5 5 6 6 7 7 7 7 8 10 10 9 8 8 7 7 7 7 7 8 8 9 9 9 10 10 9 9 10 11 12 12 12 14 15 14 14 16 18 17 15 15 16
17 17 16 16 15 16 16 15 15 16 17 16 15 13 12 10 10 10 10 10 8 6 5 5 3 3 2 3 3 3 2 2 2 3 4 4 3 3 3 4 4 4 4 4 3 4 5 6 6 6 7 8 8 7 6 6 6 6 7 7 7 7 8 10 11 11 11 12 11 10 10 10 10 11 11 12 13 15 16 16 17 16 15 15 16
17 16 16 16 16 16 16 15 15 17 18 18 16 15 14 12 11 10 9 8 8 7 7 5 4 4 4 3 2 1 0 0 1 2 3 4 4 3 3 5 5 5 6 5 3 3 5 5 5 4 4 5 5 4 4 5 6 7 7 7 8 9 10 11 13 13 13 13 12 11 10 10 10 11 12 12 13 15 16 16 18 19 18 18 19
16 15 15 15 16 15 15 15 17 19 19 18 16 15 13 12 10 8 7 6 6 6 6 5 5 5 5 4 4 3 1 1 2 3 5 5 6 7 8 10 9 9 9 6 3 3 5 4 3 3 3 4 4 4 4 6 8 9 9 10 11 13 15 16 16 17 17 15 13 12 12 11 12 13 13 13 14 15 15 15 17 19 19 19 18
17 16 15 15 17 17 17 19 21 22 20 18 16 14 12 11 9 8 7 6 5 5 4 4 4 4 4 3 3 1 2 3 4 6 7 8 8 9 11 12 12 12 11 7 3 3 4 4 3 3 3 4 6 7 7 9 10 11 11 12 14 15 17 19 18 18 17 17 15 15 14 14 14 15 15 15 16 16 14 13 15 16 16 16 16
18 16 15 17 20 20 20 21 22 20 18 16 14 11 9 9 9 9 8 7 6 6 5 3 1 2 2 1 1 2 3 4 5 7 8 9 9 10 12 13 13 13 11 7 3 3 3 3 3 3 3 4 6 7 8 9 11 11 10 11 15 17 18 19 16 14 13 14 14 14 14 15 15 16 15 16 17 16 14 14 15 15 15 16 16
19 16 17 21 22 21 20 21 20 17 16 14 12 10 8 8 8 8 9 8 6 5 4 3 2 2 3 3 3 4 4 5 7 8 9 10 11 12 14 14 14 12 8 5 3 3 2 1 2 2 3 4 5 6 7 9 10 10 11 12 14 16 18 17 14 11 12 13 13 13 14 15 16 16 15 15 15 15 14 15 15 14 15 15 15
20 19 20 22 22 20 19 19 17 15 14 12 11 11 11 9 8 8 9 8 7 6 6 6 5 5 5 5 5 5 5 6 7 9 10 11 13 13 13 12 13 11 6 4 2 2 1 2 3 4 4 5 6 7 9 10 11 11 11 12 12 13 15 15 14 13 12 12 12 14 15 15 15 16 15 15 14 14 14 14 13 13 13 14 14
22 22 22 21 20 17 16 15 15 14 13 12 12 11 11 10 9 8 9 9 8 8 8 8 6 5 5 6 6 6 7 7 8 10 11 12 11 10 8 8 8 8 7 7 6 5 4 4 4 4 5 6 7 8 9 10 10 9 9 9 10 11 13 13 14 15 13 12 12 13 13 12 13 13 13 13 13 13 12 12 12 12 13 13 14
23 24 24 22 19 16 14 13 13 12 12 11 11 10 11 12 11 9 9 10 9 7 7 6 4 4 6 6 6 7 8 9 9 10 10 8 6 7 7 6 6 7 8 8 7 6 6 6 5 6 6 6 7 7 8 8 8 9 9 9 10 11 12 12 15 16 14 11 12 13 12 11 12 12 12 11 11 12 12 12 12 13 13 14 15
24 24 23 20 18 17 15 14 14 13 13 12 12 12 12 12 11 10 11 12 10 8 7 6 5 5 5 4 4 6 8 9 9 9 9 9 9 9 8 8 8 8 8 8 7 7 7 7 6 7 7 7 7 7 7 8 8 9 10 10 10 12 13 14 15 16 14 11 12 13 12 12 12 12 12 12 11 11 12 12 13 13 13 15 15
21 20 20 19 18 17 15 15 15 14 13 12 12 13 13 12 11 13 13 11 9 8 7 6 5 4 3 4 6 9 12 12 12 11 10 10 10 10 9 9 9 8 8 8 7 7 6 6 6 6 6 6 7 7 7 8 8 9 10 10 11 12 14 14 15 15 13 11 12 12 12 12 12 12 12 12 12 12 13 13 14 14 14 15 15
14 14 15 17 17 15 14 14 14 13 13 13 13 13 13 13 14 14 12 10 9 7 6 5 5 4 3 4 6 8 9 8 7 7 7 8 8 8 8 8 8 7 7 7 6 6 5 5 5 6 6 6 7 7 8 8 9 9 10 10 11 12 13 13 13 13 12 11 11 12 12 13 13 13 12 12 13 13 14 14 15 15 15 15 15
14 12 12 14 15 15 14 13 13 13 13 13 13 13 14 14 13 11 9 9 8 6 6 6 5 4 2 2 3 4 3 3 4 5 6 6 7 7 7 6 6 6 6 5 5 5 5 5 5 6 7 7 7 8 8 8 9 9 10 10 10 12 12 12 12 12 12 12 12 12 12 13 13 13 13 13 13 14 14 15 15 15 16 16 16
17 16 15 15 15 15 13 11 12 12 12 13 15 15 15 14 12 10 9 8 7 6 6 6 5 3 2 3 6 8 6 4 4 4 5 5 5 5 5 5 5 5 5 5 5 5 5 5 5 6 7 7 8 8 8 9 9 9 9 9 10 10 11 11 11 11 11 11 12 12 12 13 13 13 13 14 14 14 14 15 15 15 16 16 16
19 19 18 17 16 15 14 14 14 13 13 14 15 15 15 14 12 10 9 9 7 7 7 6 4 3 2 4 8 9 7 4 3 3 3 3 4 5 5 5 5 5 5 5 5 5 5 6 6 6 7 8 8 8 9 9 9 9 9 10 10 10 10 10 10 10 11 11 11 12 12 13 13 13 13 14 14 14 14 15 15 15 16 16 16
21 20 19 18 17 17 18 18 17 16 16 16 15 14 14 14 12 11 10 9 8 7 7 7 5 4 5 6 9 9 6 3 2 2 2 3 4 5 5 5 5 5 5 5 5 5 5 6 7 8 9 9 9 9 9 9 10 10 10 10 10 10 11 11 11 11 11 11 11 12 12 13 13 13 13 14 14 15 15 15 15 16 16 16 17
20 20 19 18 19 19 20 19 19 18 18 16 14 13 14 14 13 12 11 10 9 8 7 7 6 5 5 5 6 6 4 2 2 3 3 4 4 4 4 5 5 5 5 5 6 6 6 6 7 8 9 10 10 10 9 9 10 10 10 11 11 11 11 12 12 11 11 11 12 12 12 13 14 14 14 14 15 15 15 16 16 17 17 17 17
20 20 19 18 18 19 19 19 18 17 16 14 14 14 14 13 13 12 10 9 9 8 7 7 6 5 5 4 4 4 3 3 4 4 4 4 4 4 5 5 6 6 5 6 7 7 7 8 8 9 9 10 10 11 11 11 11 11 11 11 11 11 11 12 12 11 12 12 12 13 13 14 15 15 16 16 16 16 16 17 17 17 18 18 18
21 21 19 17 17 17 17 17 16 16 16 15 14 14 13 12 12 11 10 9 8 7 6 6 5 5 4 4 4 4 4 4 4 4 4 4 5 5 5 6 6 6 6 7 8 9 9 9 9 10 11 11 11 11 11 11 12 12 12 12 13 12 11 12 12 13 14 14 14 14 15 15 16 16 17 17 16 16 15 17 18 17 18 18 19
21 20 18 17 17 17 17 17 16 16 16 15 14 13 12 11 10 9 9 8 8 7 6 5 5 4 4 4 4 4 4 4 4 4 5 6 6 6 6 7 7 7 7 8 9 10 10 10 11 11 12 13 12 13 12 11 12 12 13 13 14 13 13 14 15 15 14 14 14 14 15 16 17 16 16 16 16 15 14 15 17 17 17 17 18
17 16 15 15 16 16 15 15 15 15 15 14 13 12 11 10 9 8 7 7 7 6 6 5 5 4 4 4 4 4 4 5 5 5 6 6 6 7 7 8 8 8 8 10 10 11 11 12 12 12 13 13 14 14 14 14 14 14 14 14 15 16 18 19 19 18 17 17 17 19 20 20 17 16 17 18 18 17 16 16 16 16 16 17 17
16 16 16 16 16 15 14 14 14 13 13 12 11 10 10 9 9 8 7 7 7 6 6 5 5 5 5 5 5 5 5 6 6 6 6 7 7 8 8 9 10 10 10 11 12 13 14 14 14 14 15 14 14 15 16 16 16 16 16 16 18 20 23 24 23 23 23 23 23 24 25 24 22 23 25 25 22 20 18 17 16 16 17 18 17
18 18 17 16 15 14 13 13 13 12 11 10 10 10 9 9 8 8 7 7 7 7 6 6 6 6 5 5 5 5 5 5 6 6 7 8 9 9 10 11 11 12 12 13 14 14 15 16 17 17 18 18 18 18 19 19 19 18 18 20 21 24 26 26 26 26 27 26 26 27 28 27 27 27 26 24 22 20 20 19 18 18 19 20 19
16 16 16 15 14 13 13 12 11 11 11 10 10 9 9 9 8 8 8 8 7 7 7 7 6 6 5 4 4 4 5 5 6 7 8 9 11 11 12 13 14 14 15 16 16 16 17 18 19 19 20 21 22 22 23 23 22 23 24 26 27 29 28 28 27 28 30 32 33 34 33 32 32 31 28 24 22 21 20 19 19 19 20 22 21
Wind_Direction
231 234 237 238 238 234 232 232 230 228 229 229 225 222 223 225 227 230 230 229 228 231 235 238 238 240 243 243 244 250 255 256 260 265 269 269 267 264 263 263 263 265 266 264 265 266 267 268 269 270 271 272 272 271 271 271 272 273 270 266 268 268 265 261 260 266 274 276 273 273 273 272 273 274 272 270 275 281 283 282 277 273 271 271 272
229 230 231 229 229 227 227 229 227 220 221 226 227 224 223 224 227 229 229 229 229 231 234 238 240 243 245 246 249 255 257 257 261 267 272 273 273 270 269 270 269 269 270 270 269 269 270 271 272 272 271 271 270 269 269 273 274 273 269 265 266 267 265 263 261 265 272 276 273 274 275 271 268 270 268 268 272 276 277 278 279 278 274 270 270
221 215 211 209 210 213 217 222 222 214 210 218 224 222 222 224 227 229 228 228 231 233 234 237 240 243 247 251 256 259 259 259 261 266 269 269 269 269 271 273 273 270 268 270 271 272 273 275 276 276 275 272 271 270 271 275 277 274 270 266 265 266 267 267 265 265 270 275 276 275 274 269 266 267 269 272 273 270 271 275 278 281 279 275 275
212 205 204 207 204 202 206 211 213 208 205 213 219 219 219 223 227 229 227 227 233 238 240 245 250 254 257 259 261 262 262 262 264 265 265 265 266 270 273 275 275 271 267 266 268 271 274 276 277 277 276 274 273 273 275 277 279 277 274 269 266 266 269 271 269 267 270 275 276 274 272 270 268 268 272 275 273 271 275 276 277 280 281 278 279
218 214 214 218 220 219 215 214 215 209 205 213 219 218 218 221 226 231 232 233 238 244 248 251 255 258 259 261 263 265 266 267 268 267 266 265 265 267 271 274 273 270 269 269 269 272 273 275 276 275 274 274 273 273 274 275 277 280 279 274 270 269 271 273 271 269 270 273 274 273 273 274 274 273 276 279 278 278 277 277 279 283 284 281 278
231 230 225 222 227 233 228 227 230 223 217 220 223 223 223 225 231 235 235 237 241 245 249 251 254 257 259 262 264 266 269 269 269 268 266 265 264 264 267 271 272 270 271 271 270 271 272 272 273 273 273 274 273 272 274 275 276 278 279 275 273 272 271 272 271 269 269 270 271 273 275 278 279 278 277 277 283 287 286 286 288 286 284 285 280
241 241 236 226 223 229 234 239 242 234 227 226 229 231 230 228 231 235 238 241 243 248 251 251 255 259 261 264 265 266 267 268 269 267 266 264 262 263 264 267 270 269 268 267 265 265 269 271 272 273 274 276 275 274 274 274 274 276 278 277 275 273 273 274 272 271 271 272 273 275 277 279 280 282 282 282 284 285 287 292 292 286 285 287 282
238 241 242 234 229 234 241 247 251 242 232 228 228 230 230 228 231 235 240 245 248 255 258 257 258 260 263 265 268 269 268 266 265 263 262 261 258 258 261 263 265 264 263 264 266 267 270 271 272 275 276 275 276 275 274 275 277 278 279 280 278 277 277 277 277 277 277 277 277 278 278 278 282 287 290 290 289 287 290 295 293 290 293 292 283
230 234 234 225 224 228 228 231 243 247 243 240 234 229 227 229 232 235 240 247 254 260 261 259 260 262 266 270 271 273 274 271 263 254 250 251 251 251 255 258 260 265 267 269 272 276 278 277 277 278 277 276 275 275 276 277 277 278 280 280 280 279 278 277 278 279 279 280 282 283 283 283 286 289 291 295 295 293 296 299 297 297 297 294 286
237 236 228 214 212 214 213 219 232 239 242 245 241 232 227 227 230 232 236 243 249 253 254 254 258 262 267 273 274 276 276 270 261 249 241 239 239 242 250 257 261 265 270 273 277 281 282 283 285 287 285 283 281 280 278 277 275 276 277 277 277 277 277 278 279 279 282 285 288 290 290 290 295 297 298 301 301 299 301 304 304 303 300 296 293
237 226 222 212 206 209 212 217 223 230 239 240 233 230 225 221 225 229 231 235 236 239 243 246 253 260 262 265 271 273 266 257 251 243 235 228 227 234 245 254 258 260 269 279 284 287 288 289 291 294 293 290 289 287 285 282 281 279 279 280 280 279 277 279 281 282 286 289 291 293 295 297 301 302 300 299 301 304 306 305 302 302 301 297 296
225 212 210 208 202 205 213 217 221 230 241 240 228 224 220 219 228 234 230 226 224 227 236 244 250 256 254 252 257 259 251 244 233 225 224 222 230 241 249 254 259 269 281 291 293 293 293 292 294 296 295 294 293 291 288 286 286 284 283 284 283 282 280 280 282 284 286 289 290 293 297 300 301 301 299 297 302 307 307 301 299 300 300 298 298
225 210 205 204 202 206 213 217 219 226 236 236 229 225 224 226 236 239 228 219 215 218 226 236 244 238 211 204 213 214 221 221 213 216 229 236 241 246 253 264 274 285 292 297 300 298 295 295 297 297 298 301 303 301 296 293 293 291 289 288 285 285 285 283 284 287 288 289 291 293 295 296 296 300 301 300 302 304 301 298 298 296 296 296 295
225 210 203 203 207 212 212 209 212 219 226 228 226 225 227 230 231 225 218 211 206 206 206 204 201 188 173 179 198 209 212 209 221 241 248 251 251 247 260 287 296 295 297 300 302 299 297 302 305 301 302 306 304 301 298 298 302 304 301 298 293 289 289 290 293 295 293 293 295 296 297 296 296 300 302 300 299 300 299 298 296 294 295 293 294
217 209 210 214 214 209 200 198 205 214 218 220 224 223 221 220 213 207 205 198 188 191 194 183 172 172 176 181 189 206 218 218 231 244 246 254 264 267 267 282 285 285 290 292 290 290 296 306 307 301 301 299 292 289 291 295 300 304 305 307 306 295 292 295 296 291 287 289 294 296 298 299 300 302 302 302 304 305 305 304 308 317 318 310 312
208 209 212 210 199 189 186 190 199 204 207 212 218 216 209 201 194 191 188 178 172 178 177 168 171 182 184 177 179 194 192 179 180 193 209 217 227 257 252 259 283 299 317 323 320 319 319 317 311 306 303 298 296 299 302 303 301 299 302 308 311 305 305 311 310 302 294 292 295 298 299 299 302 305 305 308 313 317 319 322 327 330 324 314 313
200 201 197 186 179 179 181 187 194 196 196 199 200 195 186 180 179 179 174 164 163 169 168 167 178 184 172 158 164 174 156 139 135 137 141 141 136 205 326 43 21 8 360 350 345 340 328 320 316 317 315 310 313 316 315 313 308 294 294 298 304 316 325 325 318 310 309 308 301 298 301 302 305 310 317 327 335 335 337 337 327 321 314 308 307
188 183 177 173 173 177 182 189 193 192 188 182 177 173 170 170 171 172 168 161 161 167 168 167 165 157 149 151 158 152 132 123 119 117 114 101 85 65 58 56 37 21 359 343 344 337 324 321 322 323 319 315 317 318 315 314 310 303 304 310 319 330 325 311 303 301 309 321 316 305 307 310 311 320 336 344 341 341 344 337 327 323 314 309 308
177 172 170 171 172 176 183 187 185 180 176 172 167 167 167 168 169 168 163 161 162 160 156 153 150 147 148 151 152 145 134 126 116 108 100 88 79 66 50 28 2 358 350 344 344 336 330 332 332 332 328 321 320 318 312 311 309 309 315 318 316 307 289 290 303 307 308 320 322 311 309 307 307 318 326 321 325 341 349 341 331 327 316 312 311
170 170 169 170 171 173 177 178 173 171 170 167 165 167 166 165 164 160 154 152 151 147 145 146 146 145 142 139 142 144 136 125 113 106 107 99 85 64 29 355 346 344 346 354 349 336 338 340 333 333 335 330 326 323 317 313 307 304 306 308 306 296 286 295 311 313 302 296 292 286 290 300 310 318 319 324 334 340 342 342 342 333 317 316 313
166 169 168 166 166 168 170 169 164 164 164 165 165 162 158 156 153 149 149 150 148 147 148 149 148 144 139 139 146 147 135 125 119 121 123 106 70 50 13 342 345 349 348 358 351 334 339 347 338 340 346 342 340 339 332 325 316 308 307 308 308 307 304 308 311 304 294 297 289 288 302 313 319 305 299 319 330 323 323 332 338 332 316 310 305
165 163 160 158 158 161 166 165 162 162 164 163 158 150 147 149 149 149 150 149 146 146 149 151 149 143 141 147 151 145 134 131 133 129 117 60 23 16 358 343 352 1 356 358 355 343 347 354 351 354 358 357 357 359 354 346 338 327 320 315 313 314 313 313 308 295 297 300 292 288 287 289 295 293 291 300 303 300 313 324 324 319 312 307 302
162 161 158 157 155 156 161 164 163 160 156 152 148 146 149 151 149 147 145 143 145 150 151 153 150 143 145 154 155 147 140 134 129 107 38 6 358 356 351 350 355 358 354 358 360 350 348 350 351 354 359 4 8 9 5 0 355 347 340 338 335 330 325 325 336 337 318 295 288 286 280 276 287 293 290 291 298 307 318 318 312 311 310 307 304
162 162 156 153 152 149 151 154 153 151 148 148 151 153 152 149 146 145 143 144 150 152 150 149 147 146 153 159 156 151 144 127 66 339 339 338 342 345 346 347 350 349 349 354 355 345 340 341 343 347 353 359 3 5 6 5 2 360 357 352 346 338 336 341 335 321 309 297 293 293 290 289 298 302 296 293 298 309 317 315 309 309 309 310 311
162 158 151 148 146 144 143 144 146 147 148 151 153 151 148 147 147 146 145 145 146 146 145 144 143 147 158 166 175 190 250 310 304 304 307 311 325 337 339 339 342 343 343 344 340 334 335 338 340 343 348 349 349 353 359 360 357 356 355 354 351 347 347 343 324 311 306 299 298 301 302 303 310 308 296 292 296 303 309 309 307 306 307 311 312
159 153 149 148 146 144 144 145 145 147 147 146 146 144 143 144 144 142 143 145 145 142 140 136 135 144 165 183 220 267 286 284 283 288 296 306 321 329 329 331 338 340 338 340 341 339 338 339 340 340 339 337 338 345 351 351 352 352 351 353 354 350 349 346 334 326 321 311 310 315 312 308 310 306 298 299 305 306 299 299 303 305 306 307 308
157 152 151 150 148 148 147 144 141 141 139 137 136 134 133 137 141 141 140 140 140 137 134 137 143 161 194 221 239 253 265 268 275 293 310 324 335 337 336 336 339 341 339 343 347 339 330 330 336 336 333 334 339 345 347 346 350 353 350 348 347 345 342 340 335 333 328 320 317 316 311 310 314 314 311 312 311 304 297 298 302 306 309 309 308
155 154 154 153 152 151 148 144 146 151 151 149 148 144 141 142 148 152 150 146 144 136 132 139 142 144 182 239 255 257 264 269 281 299 313 326 336 353 358 345 341 342 336 334 341 328 315 315 321 323 326 333 336 338 340 341 338 334 331 329 327 329 332 330 327 327 326 321 313 307 306 311 311 308 310 310 306 302 305 308 308 309 312 312 309
156 157 156 155 155 155 153 154 160 163 162 159 156 151 147 146 148 151 152 152 152 146 141 142 146 151 172 202 195 144 116 97 345 340 345 345 339 338 337 335 337 334 323 315 310 304 300 297 298 305 315 324 324 324 333 336 327 320 317 312 309 312 317 317 316 315 317 319 318 314 316 321 319 315 316 316 313 313 313 311 309 308 310 310 308
158 156 155 157 158 156 157 163 165 161 158 157 155 152 150 150 151 151 151 151 154 155 155 159 169 174 179 176 161 152 132 43 14 354 346 343 339 337 338 341 344 342 340 345 348 320 310 307 311 329 335 319 306 303 312 317 318 319 319 315 312 313 314 312 309 305 302 305 311 313 314 317 320 322 323 321 319 320 318 313 311 311 312 313 312
163 159 158 163 161 157 157 160 160 157 156 157 159 159 159 158 157 154 150 146 145 146 147 152 160 162 159 155 155 141 352 354 350 342 339 343 347 347 348 351 352 353 3 22 30 329 326 324 320 339 346 313 295 296 309 316 315 315 319 320 315 312 311 310 309 306 304 304 306 307 307 309 312 315 319 319 319 322 322 317 315 316 316 317 316
165 161 163 167 164 160 159 160 159 158 158 161 165 169 172 171 165 155 149 147 147 143 136 130 134 128 108 91 53 19 11 359 350 347 347 349 350 347 345 348 348 350 3 25 20 324 327 324 308 322 337 314 296 295 304 311 308 304 311 319 316 312 313 315 316 318 319 319 317 314 313 314 316 316 318 319 318 320 322 319 316 316 315 314 315
166 163 167 168 164 162 162 162 162 163 164 167 171 171 170 170 166 158 152 151 152 149 137 128 126 113 95 78 64 50 31 6 352 347 346 345 343 338 335 336 338 341 355 18 358 318 303 298 311 326 332 325 319 314 312 315 316 315 320 327 325 322 323 329 332 326 318 318 319 315 313 315 315 314 315 318 318 318 319 317 315 314 313 313 313
168 165 167 169 166 166 167 166 167 169 169 169 166 163 162 163 165 167 163 161 164 160 142 125 111 95 77 61 49 34 13 356 344 341 341 337 333 332 335 342 349 357 21 63 59 24 54 56 31 25 15 355 347 344 336 332 335 337 338 341 342 341 342 346 348 340 330 326 324 317 313 314 316 314 314 317 317 315 314 314 315 315 314 315 314
169 167 170 172 170 170 170 170 170 169 165 160 157 158 159 157 159 167 170 168 165 151 128 111 93 64 38 25 19 9 359 349 341 339 339 337 338 349 7 19 21 27 48 72 77 73 72 64 47 39 28 8 1 3 357 350 352 357 358 359 358 355 354 353 350 350 352 348 338 332 331 330 327 324 323 322 319 319 318 317 317 317 316 316 315
171 170 173 176 175 175 176 174 169 164 157 151 150 153 154 155 159 167 165 157 150 134 112 99 78 42 23 15 9 360 350 345 345 347 350 357 20 51 63 62 56 54 58 64 66 64 63 59 51 42 33 24 18 16 13 9 8 6 3 3 360 357 356 351 348 353 1 355 341 343 349 345 336 334 334 330 325 324 322 319 318 318 316 314 313
179 179 180 179 174 174 176 172 165 163 159 153 152 156 159 161 166 166 156 145 137 127 111 96 71 38 17 4 3 3 1 4 11 18 25 37 54 68 73 71 68 66 63 62 64 62 59 55 51 44 38 32 26 20 14 12 8 3 1 360 353 351 354 351 348 354 2 357 345 347 352 347 342 341 339 336 332 330 327 325 323 320 317 314 313
181 180 178 172 165 165 166 163 160 159 156 152 152 155 157 157 157 154 148 138 129 122 108 91 78 60 25 3 10 19 22 24 28 33 40 48 54 58 61 63 64 63 61 60 60 60 56 51 46 40 29 20 17 11 4 1 357 353 354 352 346 346 350 348 347 354 0 356 350 352 354 351 348 347 345 341 338 335 333 331 329 325 323 321 319
173 164 159 159 159 159 158 157 158 157 154 151 150 147 145 144 144 142 137 130 124 120 110 97 98 98 63 18 16 26 28 28 36 43 46 50 53 53 53 54 54 54 53 50 45 42 37 30 24 14 3 359 359 355 351 350 348 343 344 345 344 344 345 344 345 351 356 354 353 355 355 352 351 351 348 343 339 337 335 332 330 328 326 325 322
176 169 164 166 165 160 159 161 161 156 150 146 141 136 134 133 132 128 126 124 121 118 110 104 106 110 112 138 143 119 81 47 49 53 47 43 43 44 46 48 47 45 37 23 14 11 4 354 353 351 345 342 343 342 340 340 341 338 339 340 340 341 342 342 343 346 350 351 351 352 350 346 346 347 343 338 336 336 333 329 327 327 325 323 321
179 175 173 171 164 157 158 163 158 148 141 139 138 134 129 124 120 117 117 115 114 113 111 108 114 123 120 135 138 128 107 75 55 47 38 34 34 34 36 36 34 32 20 360 347 343 336 332 336 341 336 333 334 333 331 332 334 333 334 334 335 337 338 337 337 340 344 345 344 345 344 343 342 342 339 336 335 333 330 327 326 326 324 322 321
168 163 161 162 159 157 160 160 153 143 136 135 133 128 121 117 116 117 115 114 114 117 116 111 108 96 74 96 112 109 94 74 55 36 27 28 29 29 32 28 21 20 15 358 343 335 333 333 335 335 331 329 328 327 327 326 325 325 326 327 327 330 332 331 329 332 336 338 339 341 341 341 340 339 337 335 333 331 328 326 324 324 323 323 322
156 153 153 154 154 154 153 150 144 139 135 131 125 119 116 116 116 117 119 120 120 120 118 113 100 74 61 77 90 90 82 66 51 45 39 37 32 29 27 19 9 14 19 6 348 343 345 342 337 333 328 323 320 320 321 320 317 316 317 318 318 321 324 324 323 325 328 331 333 334 334 335 337 336 334 333 334 332 328 325 323 321 320 319 319
145 143 144 147 149 148 145 142 139 137 134 129 123 117 114 113 113 115 117 118 117 115 113 111 105 91 74 68 72 78 84 85 65 55 45 35 26 20 16 6 359 7 17 3 348 350 353 343 332 327 323 318 315 314 313 312 309 307 307 307 309 312 314 315 315 316 319 322 325 327 328 330 332 331 330 330 332 331 329 326 324 321 319 317 315
137 136 139 141 142 141 139 135 132 128 124 118 114 112 109 108 110 112 112 112 113 113 109 106 106 104 99 89 81 83 83 69 55 46 34 24 14 5 2 358 354 1 7 355 346 348 347 336 327 324 321 317 314 312 310 308 304 300 299 298 299 301 303 305 308 310 312 314 317 319 321 324 327 327 325 325 327 328 328 326 325 323 321 319 316
132 134 134 132 130 128 125 121 117 113 110 108 108 107 107 108 109 111 113 113 112 110 109 110 107 102 97 92 83 74 64 52 42 27 14 12 8 2 358 354 352 355 355 345 340 341 336 330 327 325 320 316 313 311 309 306 302 300 299 298 297 297 298 300 302 304 306 307 308 310 313 316 318 318 319 320 322 322 323 324 324 323 324 323 320
131 132 130 126 123 118 114 112 111 107 105 106 106 106 107 108 108 112 117 118 114 111 110 109 104 97 93 87 73 58 48 38 29 16 8 7 4 358 355 353 353 353 345 336 334 332 327 324 325 322 319 317 316 313 311 308 303 301 300 297 295 295 296 298 300 300 300 300 299 299 302 305 306 308 311 314 315 315 316 318 319 318 318 319 319
127 124 120 117 115 112 109 108 108 106 104 105 105 104 104 105 106 109 111 110 109 108 107 104 100 94 87 75 64 52 40 31 24 17 11 7 1 356 353 349 346 343 337 331 327 323 320 320 318 315 314 314 313 312 312 310 306 304 304 301 297 294 296 301 303 300 296 295 295 296 298 298 296 295 298 302 305 306 306 307 310 311 311 310 309
117 115 114 111 108 106 105 105 103 102 102 102 102 103 106 108 109 110 110 108 107 105 103 100 97 90 80 69 60 49 38 31 27 21 14 5 357 351 346 338 333 332 330 325 320 318 316 315 311 309 308 307 306 306 306 304 303 304 303 299 294 292 294 300 302 298 294 294 295 297 298 297 293 292 293 294 295 295 296 296 298 302 306 307 303
119 116 113 109 107 106 105 103 102 101 102 103 104 106 108 108 108 108 107 105 103 101 98 94 88 80 71 61 53 44 33 25 19 12 2 351 342 336 333 329 326 325 323 319 316 316 315 313 311 309 307 306 306 306 304 302 302 299 291 287 290 294 296 298 298 297 297 296 295 294 292 289 288 289 289 288 286 285 286 286 287 290 298 304 302
125 117 110 107 106 104 102 101 102 102 103 105 107 108 108 108 108 107 104 102 98 93 88 82 76 70 60 48 37 25 13 5 359 353 344 335 329 327 326 324 322 320 318 318 317 315 312 311 309 307 305 305 305 304 302 300 299 294 289 289 296 300 298 295 294 297 301 302 301 297 292 288 286 285 283 282 282 280 279 279 281 283 289 298 298